Vertical_Velocity
2 -0 -15 13 7 6 3 -1 -0 -3 7 1 -4 -4 -5 6 -8 -2 1 -2 -1 -2 12 -1 3 1 -0 1 2 4 3 4 1 -0 2 1 2 -0 1 0 0 1 1 0
-0 -14 14 6 0 1 2 -0 -7 -7 3 7 1 -10 -3 -4 -1 0 -3 -3 3 3 8 5 1 -0 2 3 3 2 4 2 3 2 3 2 -1 0 0 -0 0 2 2 1
-0 4 3 3 4 3 -1 2 -5 3 2 2 -3 -14 -9 -2 -1 1 -4 10 9 4 4 6 1 3 3 3 8 7 6 2 2 4 0 1 1 -0 2 5 3 2 1 1
-1 -3 -2 5 -1 3 7 2 4 1 8 -1 3 -10 -9 -10 10 -2 -12 8 -7 1 6 5 7 7 8 6 5 5 5 3 3 2 -0 2 3 2 4 3 0 -0 1 2
1 -2 0 -1 -3 8 -12 1 3 2 1 5 3 5 -10 2 -3 -2 1 -2 -1 1 0 -3 -4 2 6 7 5 4 2 0 2 2 3 2 1 3 4 1 -0 0 1 2
-10 10 -0 -1 3 0 6 2 3 3 6 3 -0 -4 -3 -3 -5 2 -1 3 -2 1 2 2 1 -1 1 5 3 6 5 5 5 3 2 2 2 4 2 2 2 3 2 2
2 -3 -3 4 2 5 4 7 -2 -0 2 -10 1 12 -3 -1 -2 0 2 -0 -0 -1 0 1 1 1 2 -8 -2 3 2 3 2 2 2 3 3 2 2 1 2 1 1 2
-2 -18 -1 7 4 14 5 12 -5 -4 -2 -4 1 -1 -7 1 1 -1 -2 -3 -2 -1 -1 -1 1 2 3 2 5 1 -5 3 2 3 2 1 1 1 1 0 3 2 2 4
-3 -3 7 5 3 10 3 -6 5 9 6 2 -2 2 3 3 3 2 2 2 3 3 -0 1 2 1 2 2 2 3 3 5 -5 -1 1 3 2 1 2 2 1 2 3 2
3 -14 -12 -3 3 4 9 12 2 5 -0 -0 -3 4 1 6 4 1 -0 1 3 3 3 2 3 3 3 2 1 3 2 1 1 3 2 -1 -0 -0 2 1 3 3 2 1
7 8 -7 -3 -1 1 6 -1 -1 10 9 0 -1 -3 -1 3 2 1 2 2 3 2 2 3 3 2 2 2 3 3 2 2 2 4 2 2 2 2 1 1 1 3 3 2
-3 -3 -11 -6 -6 21 4 9 5 12 -11 1 6 2 1 1 1 2 0 1 2 2 1 3 3 3 2 2 0 2 1 2 5 5 2 2 1 3 -0 0 1 2 1 2
-10 8 -7 -28 4 14 11 -4 2 4 8 2 12 5 3 4 3 2 1 1 0 -0 0 1 3 4 3 2 2 1 2 4 4 3 3 2 3 1 0 -1 1 1 1 2
3 1 -0 -2 9 12 -12 5 3 4 -0 -8 1 -3 0 -0 4 0 -1 -0 0 0 1 1 -0 4 8 5 1 0 1 2 5 5 2 2 3 4 3 2 3 5 2 1
1 -3 1 -4 -2 14 -2 -5 -5 5 3 6 -2 2 0 0 -2 4 2 0 1 -1 1 2 2 0 2 2 -2 -4 -4 0 -2 6 0 0 1 5 6 4 3 5 7 5
7 -5 -1 -11 -5 1 3 1 -1 -0 1 -1 1 2 2 -2 -4 -2 -0 -4 1 2 3 -2 1 -2 -4 6 9 1 -2 -4 -4 3 -1 -1 -0 1 -0 -2 -2 -4 -3 1
0 -1 5 -9 -0 3 2 -2 -2 -1 0 3 2 0 -1 1 -2 9 -2 -3 -2 -8 -8 -5 -3 -5 -5 -7 2 5 -5 -7 -3 -6 2 -1 -3 -1 -2 -1 1 2 -4 0
0 3 13 -3 5 5 -1 -1 -0 -0 -0 -1 -1 -1 -2 -2 -3 14 -4 -0 3 -4 5 2 4 -1 -3 -2 -3 5 -3 -5 -6 -2 -3 -3 -2 -1 -2 -3 -2 -1 -4 1
-1 2 2 1 -1 -1 -2 -1 -1 -1 -2 2 1 1 -1 1 -1 -3 -3 -6 -11 -14 5 5 -2 -4 -3 0 1 3 3 -2 -2 -0 1 4 1 -0 -2 -1 -1 0 -1 -5
-3 3 3 1 0 -2 -1 -1 -1 -1 -4 0 0 0 0 3 7 6 4 6 10 7 0 3 2 -2 -5 -2 -2 9 1 -3 4 1 -1 -4 -8 2 -2 -4 2 -1 -0 0
-8 -6 -0 -0 0 1 0 -1 -3 -0 -2 1 0 -2 0 -3 -5 -2 0 4 0 2 1 -1 -1 -1 -2 -2 -2 -2 -4 -6 -6 -6 -4 -5 -4 0 4 -0 -3 -0 -0 1
-1 -2 -0 -0 0 -1 -1 -1 1 -0 1 -2 2 -0 1 2 4 0 1 0 -0 1 1 2 1 3 1 -2 -4 -2 -4 -5 -4 -1 1 2 -0 -2 -2 -2 1 -1 -0 -2
-1 -0 -2 -1 1 2 -0 0 1 0 -0 1 2 2 -2 -0 1 1 0 2 2 -1 0 -0 -1 1 1 -2 -3 -1 0 -2 0 2 2 0 -1 -1 -3 -3 -1 -1 -1 -1
1 0 0 -1 0 -0 0 0 0 1 1 1 -1 -1 1 -2 0 1 -1 -1 -1 1 -2 -2 -1 0 2 -1 -1 -3 -4 -3 -3 -2 0 0 -1 -1 0 -0 -1 -3 -0 -2
0 -0 -0 1 1 0 1 -2 -3 1 -2 -1 1 -4 -2 -4 2 -4 0 0 -1 -2 -1 -1 -2 -1 2 -1 2 1 -3 -4 -2 -2 -1 -0 -3 -1 -1 -1 -1 -3 0 -3
-1 -1 -1 -0 0 1 6 4 1 1 1 2 -2 4 3 -4 -2 -2 0 -1 -3 -2 -1 -1 -1 -3 -2 -3 -1 1 -2 -3 -2 -2 -2 -1 -4 -1 -2 -3 0 -1 -3 1
Height
3083 3082 3079 3082 3084 3084 3083 3081 3079 3079 3082 3078 3075 3071 3073 3076 3075 3074 3075 3075 3075 3074 3075 3073 3074 3075 3076 3077 3079 3081 3082 3083 3083 3084 3086 3087 3088 3090 3091 3093 3094 3096 3098 3100
3079 3073 3079 3079 3079 3077 3076 3075 3072 3073 3076 3073 3069 3063 3065 3068 3068 3070 3070 3069 3068 3068 3067 3066 3065 3067 3068 3071 3072 3073 3074 3075 3076 3078 3080 3080 3081 3083 3085 3087 3088 3091 3093 3094
3071 3073 3073 3073 3073 3072 3070 3068 3069 3069 3070 3066 3064 3053 3057 3062 3062 3064 3065 3063 3062 3059 3059 3060 3059 3060 3061 3063 3065 3066 3067 3068 3069 3071 3072 3074 3075 3077 3080 3082 3084 3086 3088 3089
3065 3066 3066 3066 3065 3069 3062 3066 3066 3065 3066 3061 3061 3050 3052 3055 3056 3056 3050 3051 3050 3049 3051 3053 3053 3053 3054 3057 3059 3060 3061 3061 3062 3064 3066 3068 3070 3071 3074 3076 3077 3078 3081 3083
3063 3061 3061 3061 3061 3063 3056 3061 3060 3060 3058 3057 3054 3058 3047 3046 3045 3046 3043 3041 3042 3043 3044 3044 3045 3045 3047 3051 3053 3054 3054 3055 3055 3057 3058 3060 3062 3064 3067 3068 3069 3071 3074 3077
3056 3058 3057 3056 3056 3057 3057 3056 3056 3054 3054 3051 3044 3050 3041 3038 3038 3039 3038 3036 3036 3035 3036 3037 3037 3037 3038 3042 3044 3045 3046 3047 3047 3048 3050 3052 3054 3056 3058 3060 3063 3065 3067 3070
3052 3050 3051 3053 3051 3051 3052 3052 3053 3052 3051 3042 3038 3040 3034 3031 3030 3031 3031 3030 3029 3028 3028 3029 3031 3031 3030 3030 3033 3036 3038 3039 3040 3041 3042 3044 3045 3047 3050 3052 3055 3056 3059 3062
3048 3042 3046 3046 3046 3045 3044 3047 3045 3042 3042 3034 3032 3030 3025 3026 3023 3024 3025 3023 3022 3022 3021 3022 3022 3023 3023 3024 3025 3025 3026 3030 3030 3032 3033 3034 3036 3038 3041 3044 3046 3048 3051 3053
3046 3041 3042 3043 3043 3044 3040 3038 3040 3037 3034 3033 3027 3025 3024 3020 3018 3016 3016 3015 3014 3013 3013 3013 3013 3014 3016 3017 3018 3019 3020 3021 3020 3022 3024 3025 3027 3029 3032 3034 3036 3039 3041 3043
3046 3036 3036 3037 3038 3036 3036 3036 3034 3032 3030 3027 3014 3012 3010 3013 3012 3010 3009 3008 3007 3006 3006 3006 3006 3006 3007 3008 3009 3011 3011 3012 3013 3014 3014 3015 3016 3018 3021 3023 3025 3028 3030 3031
3039 3036 3026 3029 3032 3032 3032 3027 3025 3022 3018 3011 3008 3006 3004 3004 3004 3003 3001 3000 3000 2999 2999 2999 2999 2998 2998 3000 3001 3002 3002 3003 3003 3004 3004 3005 3006 3008 3010 3012 3014 3016 3019 3022
3034 3032 3021 3016 3021 3025 3020 3019 3018 3015 3010 3003 2999 3000 2998 2998 2997 2996 2996 2996 2995 2995 2995 2994 2994 2992 2991 2990 2992 2993 2994 2995 2994 2994 2995 2996 2996 2997 2998 3000 3002 3005 3008 3009
3029 3028 3021 3007 3012 3012 3012 3011 3012 3012 3010 3002 2997 2995 2992 2992 2992 2991 2991 2990 2989 2989 2989 2989 2988 2987 2986 2984 2983 2984 2986 2986 2986 2986 2986 2986 2987 2987 2987 2989 2990 2991 2993 2994
3024 3021 3022 3018 3014 3014 3011 3007 3005 3005 3005 3001 2998 2995 2993 2993 2991 2989 2988 2986 2984 2982 2981 2980 2979 2979 2978 2977 2976 2975 2976 2976 2977 2976 2975 2976 2976 2977 2977 2977 2978 2978 2979 2980
3020 3016 3016 3013 3011 3010 3005 3003 3001 2998 2997 2995 2993 2991 2989 2987 2987 2985 2983 2982 2981 2979 2976 2973 2970 2969 2968 2968 2967 2966 2966 2966 2966 2966 2965 2966 2965 2965 2964 2965 2965 2966 2966 2967
3015 3010 3010 3004 3005 3002 2998 2997 2996 2995 2993 2992 2990 2989 2985 2984 2983 2984 2979 2978 2977 2975 2973 2971 2968 2966 2963 2960 2958 2956 2955 2954 2955 2954 2954 2954 2954 2954 2954 2954 2954 2954 2954 2955
3008 3006 3005 3000 3001 2999 2998 2995 2994 2993 2992 2990 2989 2987 2985 2984 2982 2981 2972 2972 2971 2969 2969 2966 2963 2961 2959 2958 2955 2952 2950 2950 2949 2949 2946 2945 2945 2943 2942 2942 2942 2942 2942 2943
3002 3003 3002 2998 2998 2995 2996 2994 2993 2992 2991 2989 2988 2986 2984 2982 2981 2974 2969 2969 2967 2966 2965 2960 2957 2955 2953 2952 2951 2946 2942 2942 2942 2942 2940 2938 2937 2935 2934 2934 2933 2932 2932 2934
3002 3002 3001 2998 2996 2997 2994 2993 2993 2991 2989 2987 2985 2984 2981 2979 2974 2971 2968 2965 2964 2965 2962 2955 2952 2950 2949 2948 2946 2942 2936 2936 2935 2934 2932 2930 2929 2928 2927 2926 2926 2924 2923 2924
3002 3000 3000 2997 2995 2995 2993 2992 2991 2988 2985 2983 2982 2981 2978 2975 2974 2970 2966 2964 2962 2958 2954 2951 2949 2946 2945 2943 2940 2935 2931 2930 2928 2926 2924 2922 2923 2920 2919 2918 2916 2915 2915 2915
2998 2997 2996 2994 2992 2991 2991 2990 2989 2989 2990 2981 2978 2975 2973 2971 2969 2966 2963 2961 2957 2952 2948 2946 2944 2941 2938 2935 2932 2930 2926 2924 2923 2921 2920 2918 2916 2913 2911 2909 2908 2907 2906 2906
2998 2996 2994 2992 2990 2991 2989 2988 2989 2985 2979 2977 2974 2970 2967 2965 2962 2959 2956 2952 2949 2945 2942 2939 2935 2933 2929 2926 2922 2920 2918 2916 2914 2912 2911 2909 2906 2904 2902 2900 2900 2898 2897 2896
2997 2996 2995 2995 2991 2988 2986 2984 2982 2979 2976 2973 2970 2966 2962 2959 2955 2951 2948 2945 2941 2938 2935 2931 2927 2924 2921 2917 2913 2910 2908 2905 2902 2900 2898 2896 2894 2893 2890 2889 2888 2888 2886 2885
2993 2992 2991 2990 2988 2986 2984 2981 2978 2975 2972 2968 2964 2960 2956 2950 2947 2943 2939 2936 2932 2929 2924 2921 2917 2914 2911 2909 2904 2900 2896 2894 2891 2888 2886 2884 2881 2879 2878 2876 2874 2873 2873 2873
2992 2991 2989 2988 2986 2984 2981 2977 2974 2971 2966 2962 2958 2953 2948 2943 2939 2934 2930 2926 2922 2918 2914 2910 2905 2902 2899 2895 2892 2888 2884 2880 2877 2875 2872 2870 2867 2865 2864 2862 2861 2859 2858 2858
2991 2990 2989 2986 2984 2981 2979 2974 2968 2964 2960 2956 2951 2947 2942 2936 2930 2925 2921 2916 2911 2906 2902 2897 2893 2888 2885 2881 2878 2875 2870 2866 2863 2861 2859 2856 2854 2852 2850 2848 2847 2846 2843 2843